Regional Weather Roundup
Issued by NWS Green Bay, WI

Home | Current Version | Previous Version | Graphics & Text | Print | Product List | Glossary Off
Versions: 1 2 3 4 5 6 7 8 9 10 11 12 13 14 15 16 17 18 19 20 21 22 23 24 25 26 27 28 29 30 31 32 33 34 35 36 37 38 39 40 41 42 43 44 45 46 47 48 49 50

000
ASUS43 KGRB 060859
RWRGRB

NORTH-CENTRAL AND NORTHEAST WISCONSIN REGIONAL WEATHER ROUNDUP
NATIONAL WEATHER SERVICE GREEN BAY WI
400 AM CDT WED MAY 06 2015

WIZ005-009-010>012-018-019-061000-
NORTH CENTRAL WISCONSIN

CITY           SKY/WX    TMP DP  RH WIND       PRES   REMARKS
IRONWOOD       MOCLDY    54  27  35 SE5       30.15S
MANITOWISH WTR NOT AVBL
ARBOR VITAE    NOT AVBL
EAGLE RIVER    NOT AVBL
LAND O LAKES   NOT AVBL
RHINELANDER    CLOUDY    51  28  41 SE3       30.21F
PHILLIPS       NOT AVBL
ANTIGO         NOT AVBL
TOMAHAWK       NOT AVBL
MERRILL        NOT AVBL
$$

WIZ013-073-061000-
NORTHEAST WISCONSIN

CITY           SKY/WX    TMP DP  RH WIND       PRES   REMARKS
IRON MOUNTAIN  CLOUDY    38  33  82 CALM      30.21F
MARINETTE      CLOUDY    48  34  57 CALM      30.22R
$$

WIZ017-030-035>037-045-061000-
CENTRAL WISCONSIN

CITY           SKY/WX    TMP DP  RH WIND       PRES   REMARKS
MEDFORD        NOT AVBL
WAUSAU         LGT RAIN  48  43  82 E7        30.19F
MOSINEE        NOT AVBL
MARSHFIELD     CLOUDY    51  47  86 SE10      30.17F
WISC RAPIDS    CLOUDY    51  46  83 E7        30.20F
STEVENS POINT  NOT AVBL
WAUPACA        NOT AVBL
SHAWANO        NOT AVBL
CLINTONVILLE   NOT AVBL
$$

WIZ038-039-048-051-061000-
FOX VALLEY

CITY           SKY/WX    TMP DP  RH WIND       PRES   REMARKS
NWS GREEN BAY  CLOUDY    52  42  69 CALM      30.21F
APPLETON       NOT AVBL
OSHKOSH        CLOUDY    50  43  77 SE5       30.20S
FOND DU LAC    CLOUDY    49  43  80 E3        30.19F
$$

WIZ022-050-052-061000-
EAST CENTRAL WISCONSIN

CITY           SKY/WX    TMP DP  RH WIND       PRES   REMARKS
STURGEON BAY   CLOUDY    48  30  49 SE5       30.25R
MANITOWOC      NOT AVBL
SHEBOYGAN      CLOUDY    46  42  86 E3        30.21F
$$

LMZ563-521-522-541>543-061000-
LAKESHORE

STATION/POSITION TIME  TEMP    WIND        PRES    VSBY  WAVE
                       AIR SEA DIR/SP/G                  HT/PER
                 (UTC) (F)     (DEG/KT/KT) (MB)    (MI)  (FT/S)
SHEBOYGAN LKSHOR 0800   46      20/  4/  5 1024.1F
KEWAUNEE LKSHORE 0800   44      40/  3/  5 1022.7F
NORTHPORT PIER   0800   44     140/  4/  5 1023.7F
SISTER BAY LKSHO 0800   47        CALM       N/A
CHAMBERS ISLAND  0800   46      60/  2/  3 1023.4F
MENOMINEE LKSHOR 0800   51      20/  4/  5 1023.6F
$$


USA.gov is the U.S. government's official web portal to all federal, state and local government web resources and services.